Change the Weather History Date:

Monday, February 20, 2012

  Actual Average Record
Temperature  
Mean Temperature 40 °F -  
Max Temperature 48 °F 55 °F 62 °F (2015)
Min Temperature 32 °F 32 °F 24 °F (2013)
Degree Days  
Heating Degree Days 25    
Moisture  
Dew Point 22 °F    
Average Humidity 47    
Maximum Humidity 69    
Minimum Humidity 23    
Precipitation  
Precipitation 0.00 in - - ()
Sea Level Pressure  
Sea Level Pressure 30.12 in    
Wind  
Wind Speed 9 mph (NW)    
Max Wind Speed 16 mph    
Max Gust Speed 21 mph    
Visibility 10 miles    
Events      
Averages and records for this station are not official NWS values.
T = Trace of Precipitation, MM = Missing Value Source: NWS Daily Summary

Daily Weather History Graph

Daily Weather History Graph

Search for Another Location

Airport or City:

Trip Planner

Search our weather history database for the weather conditions in past years. The results will help you decide how hot, cold, wet, or windy it might be!

Date:

Astronomy

Feb. 20, 2012 Rise Set
Actual Time 6:34 AM PST 5:40 PM PST
Civil Twilight 6:09 AM PST 6:06 PM PST
Nautical Twilight 5:39 AM PST 6:36 PM PST
Astronomical Twilight 5:10 AM PST 7:05 PM PST
Moon 5:33 AM PST (2/20) 4:50 PM PST (2/20)
Length of Visible Light 11h 57m
Length of Day
11h 05m
Waning Crescent, 1% of the Moon is Illuminated
Feb 20
Waning Crescent
Feb 21
New
Feb 29
First Quarter
Mar 8
Full
Mar 14
Last Quarter

Hourly Weather History & Observations

Time (PST) Temp. Windchill Dew Point Humidity Pressure Visibility Wind Dir Wind Speed Gust Speed Precip Events Conditions
12:15 AM - - - N/A% - - North - - N/A   Unknown
12:35 AM - - - N/A% - - North - - N/A   Unknown
12:55 AM - - - N/A% - - North - - N/A   Unknown
1:15 AM - - - N/A% - - North - - N/A   Unknown
1:35 AM - - - N/A% - - North - - N/A   Unknown
1:55 AM - - - N/A% - - North - - N/A   Unknown
2:15 AM - - - N/A% - - North - - N/A   Unknown
2:35 AM - - - N/A% - - North - - N/A   Unknown
2:55 AM - - - N/A% - - North - - N/A   Unknown
3:15 AM - - - N/A% - - North - - N/A   Unknown
3:35 AM - - - N/A% - - North - - N/A   Unknown
3:55 AM - - - N/A% - - North - - N/A   Unknown
4:15 AM - - - N/A% - - North - - N/A   Unknown
4:35 AM - - - N/A% - - North - - N/A   Unknown
4:55 AM - - - N/A% - - North - - N/A   Unknown
5:15 AM - - - N/A% - - North - - N/A   Unknown
5:35 AM - - - N/A% - - North - - N/A   Unknown
5:55 AM - - - N/A% - - North - - N/A   Unknown
6:15 AM - - - N/A% - - North - - N/A   Unknown
6:35 AM - - - N/A% - - North - - N/A   Unknown
6:55 AM - - - N/A% - - North - - N/A   Unknown
7:15 AM - - - N/A% - - North - - N/A   Unknown
7:35 AM - - - N/A% - - North - - N/A   Unknown
7:55 AM - - - N/A% - - North - - N/A   Unknown
8:15 AM - - - N/A% - - North - - N/A   Unknown
8:55 AM - - - N/A% - - North - - N/A   Unknown
9:15 AM - - - N/A% - - North - - N/A   Unknown
9:55 AM 41.0 °F 38.0 °F 24.8 °F 53% 30.10 in 9.0 mi West 4.6 mph - N/A   Unknown
10:15 AM 42.8 °F 38.6 °F 17.6 °F 36% 30.10 in 9.0 mi NW 6.9 mph - N/A   Clear
10:35 AM 46.4 °F 42.4 °F 14.0 °F 27% 30.11 in 9.0 mi WNW 8.1 mph - N/A   Clear
10:55 AM 46.4 °F 40.7 °F 10.4 °F 23% 30.11 in 10.0 mi NW 12.7 mph 16.1 mph N/A   Clear
11:15 AM 46.4 °F 39.8 °F 17.6 °F 32% 30.12 in 10.0 mi NW 16.1 mph - N/A   Clear
11:35 AM 46.4 °F 40.7 °F 17.6 °F 32% 30.10 in 10.0 mi NNW 12.7 mph 18.4 mph N/A   Clear
12:15 PM 46.4 °F 40.1 °F 23.0 °F 40% 30.10 in 9.0 mi NW 15.0 mph 20.7 mph N/A   Clear
12:35 PM 44.6 °F 38.1 °F 23.0 °F 43% 30.10 in 9.0 mi NW 13.8 mph 19.6 mph N/A   Clear
1:15 PM 48.2 °F - 23.0 °F 37% 30.08 in 9.0 mi NW 12.7 mph - N/A   Clear
1:35 PM 48.2 °F - 23.0 °F 37% 30.08 in 9.0 mi NW 12.7 mph 19.6 mph N/A   Clear
1:55 PM 48.2 °F - 23.0 °F 37% 30.08 in 9.0 mi NW 13.8 mph 19.6 mph N/A   Clear
2:15 PM 48.2 °F - 23.0 °F 37% 30.09 in 8.0 mi NW 15.0 mph 19.6 mph N/A   Clear
2:35 PM 48.2 °F - 23.0 °F 37% 30.09 in 10.0 mi NW 13.8 mph 17.3 mph N/A   Clear
2:55 PM 48.2 °F - 23.0 °F 37% 30.09 in 9.0 mi NW 13.8 mph - N/A   Clear
3:15 PM 48.2 °F - 23.0 °F 37% 30.09 in 9.0 mi NW 12.7 mph - N/A   Clear
3:35 PM 48.2 °F - 23.0 °F 37% 30.09 in 9.0 mi NW 10.4 mph - N/A   Clear
3:55 PM 46.4 °F 41.5 °F 23.0 °F 40% 30.09 in 9.0 mi NW 10.4 mph - N/A   Clear
4:15 PM 46.4 °F 41.1 °F 23.0 °F 40% 30.10 in 9.0 mi NW 11.5 mph - N/A   Clear
4:35 PM 44.6 °F 38.1 °F 23.0 °F 43% 30.10 in 9.0 mi NW 13.8 mph - N/A   Clear
4:55 PM 44.6 °F 39.2 °F 23.0 °F 43% 30.10 in 9.0 mi NW 10.4 mph - N/A   Clear
5:15 PM 42.8 °F 37.5 °F 23.0 °F 46% 30.11 in 10.0 mi NW 9.2 mph - N/A   Clear
5:35 PM 41.0 °F 35.2 °F 23.0 °F 49% 30.11 in 9.0 mi NW 9.2 mph - N/A   Clear
5:55 PM 39.2 °F 33.6 °F 23.0 °F 52% 30.11 in 10.0 mi NW 8.1 mph - N/A   Clear
6:15 PM 37.4 °F 32.8 °F 23.0 °F 56% 30.12 in 10.0 mi WNW 5.8 mph - N/A   Clear
6:35 PM 35.6 °F 30.7 °F 23.0 °F 60% 30.13 in 10.0 mi WNW 5.8 mph - N/A   Clear
6:55 PM 35.6 °F 30.7 °F 23.0 °F 60% 30.13 in 10.0 mi WNW 5.8 mph - N/A   Clear
7:15 PM 35.6 °F 31.7 °F 23.0 °F 60% 30.14 in 10.0 mi WNW 4.6 mph - N/A   Clear
7:35 PM 35.6 °F - 23.0 °F 60% 30.14 in 10.0 mi Calm Calm - N/A   Clear
7:55 PM 33.8 °F - 23.0 °F 65% 30.15 in 10.0 mi Calm Calm - N/A   Clear
8:15 PM 32.0 °F 28.7 °F 23.0 °F 69% 30.16 in 10.0 mi NNW 3.5 mph - N/A   Clear
8:35 PM 33.8 °F 30.8 °F 23.0 °F 65% 30.16 in 10.0 mi NW 3.5 mph - N/A   Clear
8:55 PM 33.8 °F 30.8 °F 23.0 °F 65% 30.16 in 10.0 mi North 3.5 mph - N/A   Clear
9:15 PM 32.0 °F - 23.0 °F 69% 30.17 in 10.0 mi Calm Calm - N/A   Clear
9:35 PM 32.0 °F - 23.0 °F 69% 30.17 in 10.0 mi Calm Calm - N/A   Clear
9:55 PM 32.0 °F - 23.0 °F 69% 30.18 in 10.0 mi Calm Calm - N/A   Clear
10:15 PM 32.0 °F - 23.0 °F 69% 30.18 in 10.0 mi Calm Calm - N/A   Clear
10:35 PM 28.4 °F - 23.0 °F 80% 30.18 in 10.0 mi Calm Calm - N/A   Clear
10:55 PM 26.6 °F - 21.2 °F 80% 30.18 in 10.0 mi Calm Calm - N/A   Clear
11:15 PM 26.6 °F 21.2 °F 21.2 °F 80% 30.18 in 10.0 mi ESE 4.6 mph - N/A   Clear
11:35 PM 26.6 °F - 19.4 °F 74% 30.17 in 9.0 mi Calm Calm - N/A   Clear
11:55 PM 26.6 °F 22.6 °F 19.4 °F 74% 30.18 in 10.0 mi ESE 3.5 mph - N/A   Clear